Location: El Carrer d�Abaix
(41.5797°N, 2.1791°E)
Time: 21:34:29
(UTC+00:00)

Cosmos 2082 Rocket - Pass Details

Date: 07 October 2020
Orbit: 834 x 853 km, 71.0° (Epoch: 27 October)

Event Time Altitude Azimuth Distance (km) Brightness Sun altitude
Rises 17:48:30 0° 339° (NNW) 3,394 5.6 -5.7°
Reaches altitude 10° 17:51:00 10° 344° (NNW) 2,459 4.8 -6.2°
Maximum altitude 17:56:32 56° 62° (ENE) 993 2.3 -7.2°
Drops below altitude 10° 18:02:04 10° 141° (SE) 2,456 4.3 -8.2°
Sets 18:04:34 0° 145° (SE) 3,390 5.0 -8.7°
